STARLINK-31843, 59722

Orbit data source: Space-Track

STARLINK-31843, 59722 is a payload satellite owned by SpaceX/Seattle (US) in LEO that was launched on Fri, 10 May 2024 UTC via an FALCON 9 launch vehicle from the Air Force Western Test Range (AFWTR). Payload-class satellites include a variety of spacecraft equipped with specific instruments for various scientific and technological missions. These include communications satellites like Starlink; space stations such as the ISS; scientific satellites like the Hubble; Earth observation satellites from companies like Planet Labs, Umbra, and HawkEye 360; GPS; miniature CubeSats for education and research; and military/defense satellites.

Loading next visibility...
Identifier
59722, 2024-088Q
Orbit
LEO
Country
Flag of USUS
Related business
Manufacturer
SpaceX/Seattle
Mission
Operational Commercial Communications
Bus & Motor
STARLINK V2M, Unknown motor
Mass
730 kg wet, ~700 kg dry
Launch date (UTC)
2024-05-10 (2 years ago)
Launch vehicle
FALCON 9
Launch site
Air Force Western Test Range (AFWTR)
Object type
Payload
Rocket body
Debris
Shape & HBR
Box + 2 Pan, 17.7 m
Radar Cross Section
33.884 m², Large (>1 m²)

Expand to show TLE details & history
Last TLE update: 9 hours ago

TLE from 9 hours ago
0 STARLINK-31843
1 59722U 24088Q   25346.98928017 -.00001581  00000-0 -41269-4 0  9994
2 59722  53.1589 182.9274 0001431  99.5753 260.5409 15.30184888 90403
Epoch: 2025-12-12T23:44Z
TLE epoch observation values (Epoch: 2025-12-12T23:44:33.806Z)
Latitude
-0.00007°
Longitude
104.8635°
Altitude
476.321 km
Speed
7.629 km/s
True Right ascension
12h 11m 42s
True Declination
0° 00' 00"
Sunlit
Object was in daylight at epoch
Visualization orbit readout
Latitude
Unknown
Longitude
Unknown
Altitude
Unknown
Speed
Unknown
Apparent Right ascension
Unknown
Apparent Declination
Unknown
Sunlit
N/A
Visualization observer readout
Local Sidereal Time
07:32:41
Azimuth
Unknown
Elevation
Unknown
Doppler factor
Unknown
Orbital elements
Apogee altitude
476.498 km
Perigee altitude
474.536 km
Semi-major axis
6,853.654 km
Eccentricity
0.00014
Inclination
53.1589°
RAAN
182.9274°
Arg. of periapsis
99.5753°
True anomaly
260.52473°
Mean anomaly
260.5409°
Eccentric anomaly
260.53281°
Mean motion
3.82525 °/min
Orbital period
94.11 mins
BSTAR
-0.000041269
Loading maneuver chart data...
Computing Atmospheric mass density...
Loading historical data...
Loading historical data...
Loading historical data...
Loading historical data...
Loading historical data...
Loading historical data...
Loading historical data...

Documentation

Showing up to 5 results
|